Location: Moscow
(55.7500°N, 37.5830°E)
Time: 16:34:52
(UTC+03:00)

Transit 2A - Pass Details

Date: 01 December 2021
Orbit: 591 x 967 km, 66.7° (Epoch: 21 January)

Event Time Altitude Azimuth Distance (km) Brightness Sun altitude
Rises 10:20:48 0° 316° (NW) 3,652 8.9 8.5°
Reaches altitude 10° 10:23:32 10° 308° (NW) 2,714 8.3 8.6°
Maximum altitude 10:29:19 37° 244° (WSW) 1,457 7.6 9.0°
Drops below altitude 10° 10:34:57 10° 180° (S) 2,642 10.3 9.3°
Sets 10:37:36 0° 172° (S) 3,544 11.2 9.5°
